Location: *
(50.3194°N, 7.1067°E)
Time: 11:24:40
(UTC+00:00)

Cosmos 1420 Rocket - Pass Details

Date: 22 September 2019
Orbit: 754 x 781 km, 74.0° (Epoch: 22 October)

Event Time Altitude Azimuth Distance (km) Brightness Sun altitude
Rises 19:09:59 0° 184° (S) 3,244 7.1 -16.3°
Reaches altitude 10° 19:12:24 10° 179° (S) 2,324 6.3 -16.7°
Maximum altitude 19:17:29 49° 106° (ESE) 1,005 4.2 -17.5°
Drops below altitude 10° 19:22:36 10° 33° (NNE) 2,347 6.4 -18.2°
Sets 19:25:03 0° 28° (NNE) 3,280 7.2 -18.6°
